User: anonymous   Login
Location: Melara
(45.0500°N, 11.1833°E)
Time: 20:59:10
(UTC+00:00)
Language:

Helios 1B rocket - Orbit

View from above orbital plane
View from above orbital plane
View from above satellite
View from above satellite

Ground track
Ground track

The orbit data is extracted from the following two-line orbital elements,

1 25979U 99064C   22229.46175464  .00003089  00000-0  26692-3 0  9992
2 25979  98.2144 193.5247 0005775 176.9829 183.1428 14.98017310232333
Epoch (UTC): 17 August 2022 11:04:55
Eccentricity: 0.0005775
inclination: 98.2144°
perigee height: 569 km
apogee height: 577 km
right ascension of ascending node: 193.5247°
argument of perigee: 176.9829°
revolutions per day: 14.98017310
mean anomaly at epoch: 183.1428°
orbit number at epoch: 23233

The dashed part of the orbit path shows where the satellite is in the earth's shadow,  

DLR